This is the latest recevied weather packets stored in our database for station/object VE8SKI. If no packets are shown the sender has not sent any weather packets the latest 10 day(s).
| Time | Temp. | Humidity | Pressure | Rain* | Wind** | Luminosity | Snow |
|---|---|---|---|---|---|---|---|
| 1777885670 | -2.78° C | 89% | 1025.3 hPa | 0 mm | 0.89 m/s, 69° | - | - |
| 1777885371 | -2.22° C | 89% | 1025.2 hPa | 0 mm | 0.89 m/s, 127° | - | - |
| 1777885071 | -2.22° C | 88% | 1025.3 hPa | 0 mm | 0 m/s | - | - |
| 1777884768 | -2.22° C | 88% | 1025.2 hPa | 0 mm | 0.45 m/s, 97° | - | - |
| 1777884468 | -2.22° C | 87% | 1025.1 hPa | 0 mm | 1.34 m/s, 86° | - | - |
| 1777884169 | -2.22° C | 87% | 1025.1 hPa | 0 mm | 0.89 m/s, 63° | - | - |
| 1777883869 | -2.22° C | 86% | 1025.1 hPa | 0 mm | 0.45 m/s, 62° | - | - |
| 1777883569 | -2.22° C | 86% | 1025 hPa | 0 mm | 0.89 m/s, 148° | - | - |
| 1777883270 | -2.22° C | 85% | 1025 hPa | 0 mm | 1.34 m/s, 63° | - | - |
| 1777882967 | -2.22° C | 85% | 1025 hPa | 0 mm | 0.45 m/s, 90° | - | - |
| 1777882667 | -1.67° C | 85% | 1024.9 hPa | 0 mm | 1.34 m/s, 52° | - | - |
| 1777882367 | -1.67° C | 85% | 1024.9 hPa | 0 mm | 0.89 m/s, 69° | - | - |
| 1777882068 | -1.67° C | 84% | 1024.9 hPa | 0 mm | 0.89 m/s, 98° | - | - |
| 1777881768 | -1.67° C | 84% | 1024.8 hPa | 0 mm | 0.89 m/s, 63° | - | - |
| 1777881468 | -1.67° C | 84% | 1024.9 hPa | 0 mm | 1.34 m/s, 56° | - | - |
| 1777881166 | -1.67° C | 84% | 1024.8 hPa | 0 mm | 1.34 m/s, 104° | - | - |
| 1777880870 | -1.67° C | 84% | 1024.8 hPa | 0 mm | 0.89 m/s, 69° | - | - |
| 1777880566 | -1.67° C | 84% | 1024.8 hPa | 0 mm | 0 m/s | - | - |
| 1777880267 | -1.67° C | 84% | 1024.9 hPa | 0 mm | 0 m/s | - | - |
| 1777879967 | -1.67° C | 84% | 1024.8 hPa | 0 mm | 0 m/s | - | - |
| 1777879667 | -1.67° C | 84% | 1024.8 hPa | 0 mm | 0 m/s | - | - |
| 1777879365 | -1.67° C | 84% | 1024.7 hPa | 0 mm | 0 m/s | - | - |
| 1777879065 | -1.67° C | 84% | 1024.7 hPa | 0 mm | 0 m/s | - | - |
| 1777878765 | -1.67° C | 84% | 1024.8 hPa | 0 mm | 0 m/s | - | - |
| 1777878465 | -1.67° C | 84% | 1024.7 hPa | 0 mm | 0 m/s | - | - |
* Rain latest hour (hover to see other rain measurements)
** Current wind speed in m/s (hover to see current wind gust speed)